Year,Month,Day,Hour,Minute,Value (Times are PST for temperature in C)
2014,06,29,00,00,15.60
2014,06,29,00,01,15.60
2014,06,29,00,02,15.60
2014,06,29,00,03,15.60
2014,06,29,00,04,15.60
2014,06,29,00,05,15.60
2014,06,29,00,06,15.60
2014,06,29,00,07,15.60
2014,06,29,00,08,15.60
2014,06,29,00,09,15.60
2014,06,29,00,10,15.60
2014,06,29,00,11,15.60
2014,06,29,00,12,15.60
2014,06,29,00,13,15.60
2014,06,29,00,14,15.60
2014,06,29,00,15,15.60
2014,06,29,00,16,15.60
2014,06,29,00,17,15.60
2014,06,29,00,18,15.60
2014,06,29,00,19,15.50
2014,06,29,00,20,15.50
2014,06,29,00,21,15.50
2014,06,29,00,22,15.50
2014,06,29,00,23,15.50
2014,06,29,00,24,15.50
2014,06,29,00,25,15.50
2014,06,29,00,26,15.50
2014,06,29,00,27,15.50
2014,06,29,00,28,15.50
2014,06,29,00,29,15.50
2014,06,29,00,30,15.50
2014,06,29,00,31,15.40
2014,06,29,00,32,15.40
2014,06,29,00,33,15.40
2014,06,29,00,34,15.40
2014,06,29,00,35,15.40
2014,06,29,00,36,15.40
2014,06,29,00,37,15.40
2014,06,29,00,38,15.40
2014,06,29,00,39,15.40
2014,06,29,00,40,15.40
2014,06,29,00,41,15.40
2014,06,29,00,42,15.40
2014,06,29,00,43,15.40
2014,06,29,00,44,15.40
2014,06,29,00,45,15.40
2014,06,29,00,46,15.40
2014,06,29,00,47,15.40
2014,06,29,00,48,15.40
2014,06,29,00,49,15.40
2014,06,29,00,50,15.40
2014,06,29,00,51,15.30
2014,06,29,00,52,15.30
2014,06,29,00,53,15.30
2014,06,29,00,54,15.30
2014,06,29,00,55,15.30
2014,06,29,00,56,15.30
2014,06,29,00,57,15.30
2014,06,29,00,58,15.30
2014,06,29,00,59,15.30
2014,06,29,01,00,15.30
2014,06,29,01,01,15.20
2014,06,29,01,02,15.20
2014,06,29,01,03,15.20
2014,06,29,01,04,15.20
2014,06,29,01,05,15.20
2014,06,29,01,06,15.20
2014,06,29,01,07,15.20
2014,06,29,01,08,15.20
2014,06,29,01,09,15.10
2014,06,29,01,10,15.10
2014,06,29,01,11,15.10
2014,06,29,01,12,15.10
2014,06,29,01,13,15.10
2014,06,29,01,14,15.10
2014,06,29,01,15,15.10
2014,06,29,01,16,15.10
2014,06,29,01,17,15.10
2014,06,29,01,18,15.10
2014,06,29,01,19,15.10
2014,06,29,01,20,15.10
2014,06,29,01,21,15.10
2014,06,29,01,22,15.10
2014,06,29,01,23,15.10
2014,06,29,01,24,15.00
2014,06,29,01,25,15.00
2014,06,29,01,26,15.00
2014,06,29,01,27,15.00
2014,06,29,01,28,15.00
2014,06,29,01,29,15.00
2014,06,29,01,30,15.00
2014,06,29,01,31,15.00
2014,06,29,01,32,15.00
2014,06,29,01,33,15.00
2014,06,29,01,34,15.00
2014,06,29,01,35,15.00
2014,06,29,01,36,15.00
2014,06,29,01,37,15.00
2014,06,29,01,38,15.00
2014,06,29,01,39,15.00
2014,06,29,01,40,15.00
2014,06,29,01,41,14.90
2014,06,29,01,42,14.90
2014,06,29,01,43,14.90
2014,06,29,01,44,14.90
2014,06,29,01,45,14.90
2014,06,29,01,46,14.90
2014,06,29,01,47,14.90
2014,06,29,01,48,14.90
2014,06,29,01,49,14.90
2014,06,29,01,50,14.90
2014,06,29,01,51,14.90
2014,06,29,01,52,14.90
2014,06,29,01,53,14.90
2014,06,29,01,54,14.90
2014,06,29,01,55,14.90
2014,06,29,01,56,14.90
2014,06,29,01,57,14.90
2014,06,29,01,58,14.90
2014,06,29,01,59,14.90
2014,06,29,02,00,14.90
2014,06,29,02,01,14.90
2014,06,29,02,02,14.90
2014,06,29,02,03,14.90
2014,06,29,02,04,14.90
2014,06,29,02,05,14.90
2014,06,29,02,06,14.90
2014,06,29,02,07,14.90
2014,06,29,02,08,14.90
2014,06,29,02,09,14.90
2014,06,29,02,10,14.90
2014,06,29,02,11,14.90
2014,06,29,02,12,14.90
2014,06,29,02,13,14.90
2014,06,29,02,14,14.90
2014,06,29,02,15,14.90
2014,06,29,02,16,14.90
2014,06,29,02,17,14.90
2014,06,29,02,18,14.90
2014,06,29,02,19,14.90
2014,06,29,02,20,14.90
2014,06,29,02,21,14.90
2014,06,29,02,22,14.90
2014,06,29,02,23,14.90
2014,06,29,02,24,14.90
2014,06,29,02,25,14.90
2014,06,29,02,26,14.90
2014,06,29,02,27,14.90
2014,06,29,02,28,14.90
2014,06,29,02,29,14.90
2014,06,29,02,30,14.90
2014,06,29,02,31,14.90
2014,06,29,02,32,14.90
2014,06,29,02,33,14.90
2014,06,29,02,34,14.90
2014,06,29,02,35,14.80
2014,06,29,02,36,14.80
2014,06,29,02,37,14.80
2014,06,29,02,38,14.90
2014,06,29,02,39,14.90
2014,06,29,02,40,14.90
2014,06,29,02,41,14.90
2014,06,29,02,42,14.80
2014,06,29,02,43,14.80
2014,06,29,02,44,14.80
2014,06,29,02,45,14.80
2014,06,29,02,46,14.80
2014,06,29,02,47,14.80
2014,06,29,02,48,14.80
2014,06,29,02,49,14.80
2014,06,29,02,50,14.80
2014,06,29,02,51,14.80
2014,06,29,02,52,14.80
2014,06,29,02,53,14.80
2014,06,29,02,54,14.80
2014,06,29,02,55,14.80
2014,06,29,02,56,14.80
2014,06,29,02,57,14.80
2014,06,29,02,58,14.80
2014,06,29,02,59,14.80
2014,06,29,03,00,14.80
2014,06,29,03,01,14.80
2014,06,29,03,02,14.80
2014,06,29,03,03,14.70
2014,06,29,03,04,14.80
2014,06,29,03,05,14.70
2014,06,29,03,06,14.70
2014,06,29,03,07,14.70
2014,06,29,03,08,14.70
2014,06,29,03,09,14.70
2014,06,29,03,10,14.70
2014,06,29,03,11,14.70
2014,06,29,03,12,14.70
2014,06,29,03,13,14.70
2014,06,29,03,14,14.70
2014,06,29,03,15,14.70
2014,06,29,03,16,14.70
2014,06,29,03,17,14.70
2014,06,29,03,18,14.70
2014,06,29,03,19,14.70
2014,06,29,03,20,14.80
2014,06,29,03,21,14.80
2014,06,29,03,22,14.80
2014,06,29,03,23,14.80
2014,06,29,03,24,14.80
2014,06,29,03,25,14.80
2014,06,29,03,26,14.80
2014,06,29,03,27,14.80
2014,06,29,03,28,14.80
2014,06,29,03,29,14.80
2014,06,29,03,30,14.80
2014,06,29,03,31,14.80
2014,06,29,03,32,14.80
2014,06,29,03,33,14.80
2014,06,29,03,34,14.80
2014,06,29,03,35,14.80
2014,06,29,03,36,14.80
2014,06,29,03,37,14.80
2014,06,29,03,38,14.80
2014,06,29,03,39,14.80
2014,06,29,03,40,14.80
2014,06,29,03,41,14.80
2014,06,29,03,42,14.80
2014,06,29,03,43,14.80
2014,06,29,03,44,14.80
2014,06,29,03,45,14.80
2014,06,29,03,46,14.80
2014,06,29,03,47,14.80
2014,06,29,03,48,14.80
2014,06,29,03,49,14.80
2014,06,29,03,50,14.80
2014,06,29,03,51,14.80
2014,06,29,03,52,14.80
2014,06,29,03,53,14.80
2014,06,29,03,54,14.70
2014,06,29,03,55,14.70
2014,06,29,03,56,14.70
2014,06,29,03,57,14.70
2014,06,29,03,58,14.70
2014,06,29,03,59,14.70
2014,06,29,04,00,14.70
2014,06,29,04,01,14.70
2014,06,29,04,02,14.70
2014,06,29,04,03,14.70
2014,06,29,04,04,14.70
2014,06,29,04,05,14.70
2014,06,29,04,06,14.70
2014,06,29,04,07,14.70
2014,06,29,04,08,14.70
2014,06,29,04,09,14.70
2014,06,29,04,10,14.70
2014,06,29,04,11,14.70
2014,06,29,04,12,14.70
2014,06,29,04,13,14.70
2014,06,29,04,14,14.70
2014,06,29,04,15,14.70
2014,06,29,04,16,14.70
2014,06,29,04,17,14.70
2014,06,29,04,18,14.70
2014,06,29,04,19,14.70
2014,06,29,04,20,14.70
2014,06,29,04,21,14.70
2014,06,29,04,22,14.70
2014,06,29,04,23,14.70
2014,06,29,04,24,14.70
2014,06,29,04,25,14.70
2014,06,29,04,26,14.70
2014,06,29,04,27,14.70
2014,06,29,04,28,14.70
2014,06,29,04,29,14.70
2014,06,29,04,30,14.70
2014,06,29,04,31,14.70
2014,06,29,04,32,14.70
2014,06,29,04,33,14.70
2014,06,29,04,34,14.70
2014,06,29,04,35,14.70
2014,06,29,04,36,14.70
2014,06,29,04,37,14.70
2014,06,29,04,38,14.70
2014,06,29,04,39,14.70
2014,06,29,04,40,14.70
2014,06,29,04,41,14.70
2014,06,29,04,42,14.70
2014,06,29,04,43,14.70
2014,06,29,04,44,14.70
2014,06,29,04,45,14.70
2014,06,29,04,46,14.70
2014,06,29,04,47,14.70
2014,06,29,04,48,14.70
2014,06,29,04,49,14.70
2014,06,29,04,50,14.70
2014,06,29,04,51,14.70
2014,06,29,04,52,14.70
2014,06,29,04,53,14.80
2014,06,29,04,54,14.80
2014,06,29,04,55,14.80
2014,06,29,04,56,14.70
2014,06,29,04,57,14.70
2014,06,29,04,58,14.70
2014,06,29,04,59,14.70
2014,06,29,05,00,14.70
2014,06,29,05,01,14.70
2014,06,29,05,02,14.70
2014,06,29,05,03,14.70
2014,06,29,05,04,14.70
2014,06,29,05,05,14.70
2014,06,29,05,06,14.70
2014,06,29,05,07,14.70
2014,06,29,05,08,14.70
2014,06,29,05,09,14.70
2014,06,29,05,10,14.70
2014,06,29,05,11,14.70
2014,06,29,05,12,14.70
2014,06,29,05,13,14.70
2014,06,29,05,14,14.70
2014,06,29,05,15,14.70
2014,06,29,05,16,14.70
2014,06,29,05,17,14.70
2014,06,29,05,18,14.70
2014,06,29,05,19,14.70
2014,06,29,05,20,14.70
2014,06,29,05,21,14.70
2014,06,29,05,22,14.70
2014,06,29,05,23,14.70
2014,06,29,05,24,14.70
2014,06,29,05,25,14.70
2014,06,29,05,26,14.70
2014,06,29,05,27,14.70
2014,06,29,05,28,14.70
2014,06,29,05,29,14.70
2014,06,29,05,30,14.70
2014,06,29,05,31,14.70
2014,06,29,05,32,14.70
2014,06,29,05,33,14.60
2014,06,29,05,34,14.60
2014,06,29,05,35,14.60
2014,06,29,05,36,14.60
2014,06,29,05,37,14.60
2014,06,29,05,38,14.60
2014,06,29,05,39,14.50
2014,06,29,05,40,14.50
2014,06,29,05,41,14.40
2014,06,29,05,42,14.40
2014,06,29,05,43,14.40
2014,06,29,05,44,14.40
2014,06,29,05,45,14.40
2014,06,29,05,46,14.40
2014,06,29,05,47,14.40
2014,06,29,05,48,14.30
2014,06,29,05,49,14.30
2014,06,29,05,50,14.30
2014,06,29,05,51,14.30
2014,06,29,05,52,14.30
2014,06,29,05,53,14.30
2014,06,29,05,54,14.30
2014,06,29,05,55,14.30
2014,06,29,05,56,14.30
2014,06,29,05,57,14.30
2014,06,29,05,58,14.30
2014,06,29,05,59,14.30
2014,06,29,06,00,14.30
2014,06,29,06,01,14.30
2014,06,29,06,02,14.20
2014,06,29,06,03,14.20
2014,06,29,06,04,14.20
2014,06,29,06,05,14.30
2014,06,29,06,06,14.30
2014,06,29,06,07,14.30
2014,06,29,06,08,14.30
2014,06,29,06,09,14.30
2014,06,29,06,10,14.30
2014,06,29,06,11,14.30
2014,06,29,06,12,14.30
2014,06,29,06,13,14.30
2014,06,29,06,14,14.30
2014,06,29,06,15,14.30
2014,06,29,06,16,14.30
2014,06,29,06,17,14.30
2014,06,29,06,18,14.30
2014,06,29,06,19,14.30
2014,06,29,06,20,14.20
2014,06,29,06,21,14.20
2014,06,29,06,22,14.20
2014,06,29,06,23,14.20
2014,06,29,06,24,14.20
2014,06,29,06,25,14.20
2014,06,29,06,26,14.20
2014,06,29,06,27,14.20
2014,06,29,06,28,14.20
2014,06,29,06,29,14.20
2014,06,29,06,30,14.20
2014,06,29,06,31,14.20
2014,06,29,06,32,14.20
2014,06,29,06,33,14.20
2014,06,29,06,34,14.20
2014,06,29,06,35,14.20
2014,06,29,06,36,14.20
2014,06,29,06,37,14.20
2014,06,29,06,38,14.20
2014,06,29,06,39,14.30
2014,06,29,06,40,14.30
2014,06,29,06,41,14.30
2014,06,29,06,42,14.30
2014,06,29,06,43,14.30
2014,06,29,06,44,14.30
2014,06,29,06,45,14.30
2014,06,29,06,46,14.30
2014,06,29,06,47,14.30
2014,06,29,06,48,14.30
2014,06,29,06,49,14.30
2014,06,29,06,50,14.40
2014,06,29,06,51,14.40
2014,06,29,06,52,14.40
2014,06,29,06,53,14.40
2014,06,29,06,54,14.40
2014,06,29,06,55,14.40
2014,06,29,06,56,14.40
2014,06,29,06,57,14.40
2014,06,29,06,58,14.40
2014,06,29,06,59,14.40
2014,06,29,07,00,14.40
2014,06,29,07,01,14.40
2014,06,29,07,02,14.40
2014,06,29,07,03,14.40
2014,06,29,07,04,14.40
2014,06,29,07,05,14.40
2014,06,29,07,06,14.50
2014,06,29,07,07,14.50
2014,06,29,07,08,14.50
2014,06,29,07,09,14.50
2014,06,29,07,10,14.50
2014,06,29,07,11,14.50
2014,06,29,07,12,14.60
2014,06,29,07,13,14.60
2014,06,29,07,14,14.60
2014,06,29,07,15,14.60
2014,06,29,07,16,14.60
2014,06,29,07,17,14.60
2014,06,29,07,18,14.70
2014,06,29,07,19,14.70
2014,06,29,07,20,14.70
2014,06,29,07,21,14.70
2014,06,29,07,22,14.80
2014,06,29,07,23,14.80
2014,06,29,07,24,14.80
2014,06,29,07,25,14.90
2014,06,29,07,26,14.90
2014,06,29,07,27,15.00
2014,06,29,07,28,15.00
2014,06,29,07,29,15.00
2014,06,29,07,30,15.10
2014,06,29,07,31,15.10
2014,06,29,07,32,15.10
2014,06,29,07,33,15.20
2014,06,29,07,34,15.20
2014,06,29,07,35,15.20
2014,06,29,07,36,15.20
2014,06,29,07,37,15.20
2014,06,29,07,38,15.20
2014,06,29,07,39,15.20
2014,06,29,07,40,15.20
2014,06,29,07,41,15.20
2014,06,29,07,42,15.20
2014,06,29,07,43,15.20
2014,06,29,07,44,15.20
2014,06,29,07,45,15.20
2014,06,29,07,46,15.20
2014,06,29,07,47,15.20
2014,06,29,07,48,15.20
2014,06,29,07,49,15.20
2014,06,29,07,50,15.20
2014,06,29,07,51,15.20
2014,06,29,07,52,15.20
2014,06,29,07,53,15.20
2014,06,29,07,54,15.20
2014,06,29,07,55,15.20
2014,06,29,07,56,15.20
2014,06,29,07,57,15.20
2014,06,29,07,58,15.30
2014,06,29,07,59,15.30
2014,06,29,08,00,15.30
2014,06,29,08,01,15.30
2014,06,29,08,02,15.30
2014,06,29,08,03,15.30
2014,06,29,08,04,15.40
2014,06,29,08,05,15.40
2014,06,29,08,06,15.40
2014,06,29,08,07,15.40
2014,06,29,08,08,15.50
2014,06,29,08,09,15.50
2014,06,29,08,10,15.50
2014,06,29,08,11,15.60
2014,06,29,08,12,15.60
2014,06,29,08,13,15.60
2014,06,29,08,14,15.60
2014,06,29,08,15,15.60
2014,06,29,08,16,15.60
2014,06,29,08,17,15.60
2014,06,29,08,18,15.60
2014,06,29,08,19,15.60
2014,06,29,08,20,15.60
2014,06,29,08,21,15.60
2014,06,29,08,22,15.60
2014,06,29,08,23,15.70
2014,06,29,08,24,15.70
2014,06,29,08,25,15.70
2014,06,29,08,26,15.70
2014,06,29,08,27,15.70
2014,06,29,08,28,15.70
2014,06,29,08,29,15.70
2014,06,29,08,30,15.70
2014,06,29,08,31,15.70
2014,06,29,08,32,15.70
2014,06,29,08,33,15.70
2014,06,29,08,34,15.70
2014,06,29,08,35,15.80
2014,06,29,08,36,15.80
2014,06,29,08,37,15.80
2014,06,29,08,38,15.80
2014,06,29,08,39,15.80
2014,06,29,08,40,15.80
2014,06,29,08,41,15.80
2014,06,29,08,42,15.90
2014,06,29,08,43,15.90
2014,06,29,08,44,15.90
2014,06,29,08,45,15.90
2014,06,29,08,46,15.90
2014,06,29,08,47,15.90
2014,06,29,08,48,16.00
2014,06,29,08,49,16.00
2014,06,29,08,50,16.00
2014,06,29,08,51,16.00
2014,06,29,08,52,16.00
2014,06,29,08,53,16.00
2014,06,29,08,54,16.00
2014,06,29,08,55,16.00
2014,06,29,08,56,16.00
2014,06,29,08,57,16.00
2014,06,29,08,58,16.00
2014,06,29,08,59,16.00
2014,06,29,09,00,16.00
2014,06,29,09,01,16.00
2014,06,29,09,02,16.10
2014,06,29,09,03,16.10
2014,06,29,09,04,16.10
2014,06,29,09,05,16.10
2014,06,29,09,06,16.10
2014,06,29,09,07,16.10
2014,06,29,09,08,16.10
2014,06,29,09,09,16.20
2014,06,29,09,10,16.20
2014,06,29,09,11,16.20
2014,06,29,09,12,16.20
2014,06,29,09,13,16.20
2014,06,29,09,14,16.20
2014,06,29,09,15,16.20
2014,06,29,09,16,16.30
2014,06,29,09,17,16.30
2014,06,29,09,18,16.30
2014,06,29,09,19,16.30
2014,06,29,09,20,16.40
2014,06,29,09,21,16.40
2014,06,29,09,22,16.40
2014,06,29,09,23,16.50
2014,06,29,09,24,16.50
2014,06,29,09,25,16.60
2014,06,29,09,26,16.60
2014,06,29,09,27,16.60
2014,06,29,09,28,16.60
2014,06,29,09,29,16.70
2014,06,29,09,30,16.70
2014,06,29,09,31,16.70
2014,06,29,09,32,16.70
2014,06,29,09,33,16.70
2014,06,29,09,34,16.70
2014,06,29,09,35,16.70
2014,06,29,09,36,16.70
2014,06,29,09,37,16.70
2014,06,29,09,38,16.70
2014,06,29,09,39,16.60
2014,06,29,09,40,16.60
2014,06,29,09,41,16.60
2014,06,29,09,42,16.60
2014,06,29,09,43,16.60
2014,06,29,09,44,16.60
2014,06,29,09,45,16.60
2014,06,29,09,46,16.50
2014,06,29,09,47,16.60
2014,06,29,09,48,16.60
2014,06,29,09,49,16.60
2014,06,29,09,50,16.60
2014,06,29,09,51,16.60
2014,06,29,09,52,16.70
2014,06,29,09,53,16.70
2014,06,29,09,54,16.70
2014,06,29,09,55,16.80
2014,06,29,09,56,16.80
2014,06,29,09,57,16.80
2014,06,29,09,58,16.80
2014,06,29,09,59,16.80
2014,06,29,10,00,16.80
2014,06,29,10,01,16.80
2014,06,29,10,02,16.90
2014,06,29,10,03,16.90
2014,06,29,10,04,17.00
2014,06,29,10,05,17.00
2014,06,29,10,06,17.10
2014,06,29,10,07,17.10
2014,06,29,10,08,17.10
2014,06,29,10,09,17.10
2014,06,29,10,10,17.10
2014,06,29,10,11,17.00
2014,06,29,10,12,17.00
2014,06,29,10,13,16.90
2014,06,29,10,14,16.90
2014,06,29,10,15,16.90
2014,06,29,10,16,16.90
2014,06,29,10,17,16.90
2014,06,29,10,18,16.90
2014,06,29,10,19,16.90
2014,06,29,10,20,17.00
2014,06,29,10,21,17.00
2014,06,29,10,22,17.10
2014,06,29,10,23,17.10
2014,06,29,10,24,17.20
2014,06,29,10,25,17.20
2014,06,29,10,26,17.20
2014,06,29,10,27,17.30
2014,06,29,10,28,17.30
2014,06,29,10,29,17.40
2014,06,29,10,30,17.40
2014,06,29,10,31,17.40
2014,06,29,10,32,17.40
2014,06,29,10,33,17.40
2014,06,29,10,34,17.30
2014,06,29,10,35,17.20
2014,06,29,10,36,17.10
2014,06,29,10,37,17.10
2014,06,29,10,38,17.10
2014,06,29,10,39,17.10
2014,06,29,10,40,17.20
2014,06,29,10,41,17.20
2014,06,29,10,42,17.30
2014,06,29,10,43,17.30
2014,06,29,10,44,17.30
2014,06,29,10,45,17.30
2014,06,29,10,46,17.40
2014,06,29,10,47,17.40
2014,06,29,10,48,17.40
2014,06,29,10,49,17.40
2014,06,29,10,50,17.40
2014,06,29,10,51,17.50
2014,06,29,10,52,17.50
2014,06,29,10,53,17.60
2014,06,29,10,54,17.60
2014,06,29,10,55,17.70
2014,06,29,10,56,17.70
2014,06,29,10,57,17.70
2014,06,29,10,58,17.70
2014,06,29,10,59,17.70
2014,06,29,11,00,17.70
2014,06,29,11,01,17.80
2014,06,29,11,02,17.90
2014,06,29,11,03,18.00
2014,06,29,11,04,18.00
2014,06,29,11,05,18.00
2014,06,29,11,06,17.90
2014,06,29,11,07,17.90
2014,06,29,11,08,17.80
2014,06,29,11,09,17.70
2014,06,29,11,10,17.70
2014,06,29,11,11,17.70
2014,06,29,11,12,17.60
2014,06,29,11,13,17.60
2014,06,29,11,14,17.50
2014,06,29,11,15,17.40
2014,06,29,11,16,17.30
2014,06,29,11,17,17.30
2014,06,29,11,18,17.30
2014,06,29,11,19,17.30
2014,06,29,11,20,17.30
2014,06,29,11,21,17.30
2014,06,29,11,22,17.40
2014,06,29,11,23,17.50
2014,06,29,11,24,17.60
2014,06,29,11,25,17.70
2014,06,29,11,26,17.70
2014,06,29,11,27,17.80
2014,06,29,11,28,17.80
2014,06,29,11,29,17.90
2014,06,29,11,30,17.90
2014,06,29,11,31,18.00
2014,06,29,11,32,18.00
2014,06,29,11,33,18.10
2014,06,29,11,34,18.10
2014,06,29,11,35,18.10
2014,06,29,11,36,18.10
2014,06,29,11,37,18.20
2014,06,29,11,38,18.20
2014,06,29,11,39,18.20
2014,06,29,11,40,18.30
2014,06,29,11,41,18.30
2014,06,29,11,42,18.40
2014,06,29,11,43,18.40
2014,06,29,11,44,18.50
2014,06,29,11,45,18.60
2014,06,29,11,46,18.70
2014,06,29,11,47,18.70
2014,06,29,11,48,18.60
2014,06,29,11,49,18.60
2014,06,29,11,50,18.60
2014,06,29,11,51,18.60
2014,06,29,11,52,18.60
2014,06,29,11,53,18.60
2014,06,29,11,54,18.50
2014,06,29,11,55,18.40
2014,06,29,11,56,18.40
2014,06,29,11,57,18.40
2014,06,29,11,58,18.40
2014,06,29,11,59,18.50
2014,06,29,12,00,18.50
2014,06,29,12,01,18.50
2014,06,29,12,02,18.50
2014,06,29,12,03,18.40
2014,06,29,12,04,18.40
2014,06,29,12,05,18.40
2014,06,29,12,06,18.40
2014,06,29,12,07,18.40
2014,06,29,12,08,18.50
2014,06,29,12,09,18.50
2014,06,29,12,10,18.50
2014,06,29,12,11,18.60
2014,06,29,12,12,18.70
2014,06,29,12,13,18.70
2014,06,29,12,14,18.70
2014,06,29,12,15,18.70
2014,06,29,12,16,18.70
2014,06,29,12,17,18.70
2014,06,29,12,18,18.70
2014,06,29,12,19,18.70
2014,06,29,12,20,18.60
2014,06,29,12,21,18.50
2014,06,29,12,22,18.50
2014,06,29,12,23,18.50
2014,06,29,12,24,18.50
2014,06,29,12,25,18.60
2014,06,29,12,26,18.60
2014,06,29,12,27,18.60
2014,06,29,12,28,18.70
2014,06,29,12,29,18.70
2014,06,29,12,30,18.70
2014,06,29,12,31,18.70
2014,06,29,12,32,18.70
2014,06,29,12,33,18.70
2014,06,29,12,34,18.70
2014,06,29,12,35,18.70
2014,06,29,12,36,18.70
2014,06,29,12,37,18.70
2014,06,29,12,38,18.80
2014,06,29,12,39,18.80
2014,06,29,12,40,18.80
2014,06,29,12,41,18.70
2014,06,29,12,42,18.70
2014,06,29,12,43,18.60
2014,06,29,12,44,18.60
2014,06,29,12,45,18.50
2014,06,29,12,46,18.50
2014,06,29,12,47,18.60
2014,06,29,12,48,18.70
2014,06,29,12,49,18.80
2014,06,29,12,50,18.80
2014,06,29,12,51,18.90
2014,06,29,12,52,18.90
2014,06,29,12,53,18.90
2014,06,29,12,54,19.00
2014,06,29,12,55,19.00
2014,06,29,12,56,19.00
2014,06,29,12,57,19.10
2014,06,29,12,58,19.20
2014,06,29,12,59,19.30
2014,06,29,13,00,19.40
2014,06,29,13,01,19.40
2014,06,29,13,02,19.50
2014,06,29,13,03,19.40
2014,06,29,13,04,19.30
2014,06,29,13,05,19.20
2014,06,29,13,06,19.10
2014,06,29,13,07,19.10
2014,06,29,13,08,19.10
2014,06,29,13,09,19.20
2014,06,29,13,10,19.30
2014,06,29,13,11,19.30
2014,06,29,13,12,19.30
2014,06,29,13,13,19.20
2014,06,29,13,14,19.20
2014,06,29,13,15,19.30
2014,06,29,13,16,19.30
2014,06,29,13,17,19.30
2014,06,29,13,18,19.30
2014,06,29,13,19,19.20
2014,06,29,13,20,19.20
2014,06,29,13,21,19.20
2014,06,29,13,22,19.20
2014,06,29,13,23,19.30
2014,06,29,13,24,19.30
2014,06,29,13,25,19.30
2014,06,29,13,26,19.30
2014,06,29,13,27,19.30
2014,06,29,13,28,19.20
2014,06,29,13,29,19.30
2014,06,29,13,30,19.30
2014,06,29,13,31,19.40
2014,06,29,13,32,19.50
2014,06,29,13,33,19.60
2014,06,29,13,34,19.60
2014,06,29,13,35,19.60
2014,06,29,13,36,19.50
2014,06,29,13,37,19.50
2014,06,29,13,38,19.40
2014,06,29,13,39,19.30
2014,06,29,13,40,19.30
2014,06,29,13,41,19.30
2014,06,29,13,42,19.30
2014,06,29,13,43,19.30
2014,06,29,13,44,19.30
2014,06,29,13,45,19.30
2014,06,29,13,46,19.30
2014,06,29,13,47,19.20
2014,06,29,13,48,19.30
2014,06,29,13,49,19.30
2014,06,29,13,50,19.40
2014,06,29,13,51,19.50
2014,06,29,13,52,19.60
2014,06,29,13,53,19.60
2014,06,29,13,54,19.60
2014,06,29,13,55,19.60
2014,06,29,13,56,19.70
2014,06,29,13,57,19.80
2014,06,29,13,58,19.80
2014,06,29,13,59,19.80
2014,06,29,14,00,19.70
2014,06,29,14,01,19.70
2014,06,29,14,02,19.60
2014,06,29,14,03,19.50
2014,06,29,14,04,19.40
2014,06,29,14,05,19.40
2014,06,29,14,06,19.30
2014,06,29,14,07,19.30
2014,06,29,14,08,19.20
2014,06,29,14,09,19.20
2014,06,29,14,10,19.20
2014,06,29,14,11,19.20
2014,06,29,14,12,19.30
2014,06,29,14,13,19.30
2014,06,29,14,14,19.40
2014,06,29,14,15,19.40
2014,06,29,14,16,19.40
2014,06,29,14,17,19.40
2014,06,29,14,18,19.40
2014,06,29,14,19,19.40
2014,06,29,14,20,19.40
2014,06,29,14,21,19.50
2014,06,29,14,22,19.50
2014,06,29,14,23,19.60
2014,06,29,14,24,19.70
2014,06,29,14,25,19.70
2014,06,29,14,26,19.80
2014,06,29,14,27,19.80
2014,06,29,14,28,19.80
2014,06,29,14,29,19.80
2014,06,29,14,30,19.70
2014,06,29,14,31,19.70
2014,06,29,14,32,19.70
2014,06,29,14,33,19.70
2014,06,29,14,34,19.70
2014,06,29,14,35,19.80
2014,06,29,14,36,19.80
2014,06,29,14,37,19.80
2014,06,29,14,38,19.80
2014,06,29,14,39,19.90
2014,06,29,14,40,20.00
2014,06,29,14,41,20.10
2014,06,29,14,42,20.20
2014,06,29,14,43,20.20
2014,06,29,14,44,20.10
2014,06,29,14,45,20.00
2014,06,29,14,46,20.00
2014,06,29,14,47,19.90
2014,06,29,14,48,19.80
2014,06,29,14,49,19.70
2014,06,29,14,50,19.70
2014,06,29,14,51,19.60
2014,06,29,14,52,19.70
2014,06,29,14,53,19.80
2014,06,29,14,54,19.90
2014,06,29,14,55,20.00
2014,06,29,14,56,20.10
2014,06,29,14,57,20.20
2014,06,29,14,58,20.30
2014,06,29,14,59,20.30
2014,06,29,15,00,20.30
2014,06,29,15,01,20.20
2014,06,29,15,02,20.20
2014,06,29,15,03,20.20
2014,06,29,15,04,20.20
2014,06,29,15,05,20.20
2014,06,29,15,06,20.20
2014,06,29,15,07,20.20
2014,06,29,15,08,20.30
2014,06,29,15,09,20.30
2014,06,29,15,10,20.40
2014,06,29,15,11,20.40
2014,06,29,15,12,20.40
2014,06,29,15,13,20.40
2014,06,29,15,14,20.40
2014,06,29,15,15,20.40
2014,06,29,15,16,20.40
2014,06,29,15,17,20.40
2014,06,29,15,18,20.50
2014,06,29,15,19,20.60
2014,06,29,15,20,20.70
2014,06,29,15,21,20.60
2014,06,29,15,22,20.60
2014,06,29,15,23,20.50
2014,06,29,15,24,20.40
2014,06,29,15,25,20.30
2014,06,29,15,26,20.20
2014,06,29,15,27,20.20
2014,06,29,15,28,20.30
2014,06,29,15,29,20.30
2014,06,29,15,30,20.40
2014,06,29,15,31,20.50
2014,06,29,15,32,20.50
2014,06,29,15,33,20.50
2014,06,29,15,34,20.50
2014,06,29,15,35,20.50
2014,06,29,15,36,20.40
2014,06,29,15,37,20.40
2014,06,29,15,38,20.40
2014,06,29,15,39,20.40
2014,06,29,15,40,20.40
2014,06,29,15,41,20.50
2014,06,29,15,42,20.50
2014,06,29,15,43,20.60
2014,06,29,15,44,20.70
2014,06,29,15,45,20.60
2014,06,29,15,46,20.60
2014,06,29,15,47,20.60
2014,06,29,15,48,20.60
2014,06,29,15,49,20.60
2014,06,29,15,50,20.60
2014,06,29,15,51,20.60
2014,06,29,15,52,20.60
2014,06,29,15,53,20.60
2014,06,29,15,54,20.60
2014,06,29,15,55,20.50
2014,06,29,15,56,20.50
2014,06,29,15,57,20.50
2014,06,29,15,58,20.30
2014,06,29,15,59,20.20
2014,06,29,16,00,20.10
2014,06,29,16,01,20.10
2014,06,29,16,02,20.00
2014,06,29,16,03,19.90
2014,06,29,16,04,19.90
2014,06,29,16,05,19.80
2014,06,29,16,06,19.70
2014,06,29,16,07,19.70
2014,06,29,16,08,19.70
2014,06,29,16,09,19.70
2014,06,29,16,10,19.70
2014,06,29,16,11,19.70
2014,06,29,16,12,19.70
2014,06,29,16,13,19.80
2014,06,29,16,14,19.90
2014,06,29,16,15,20.00
2014,06,29,16,16,20.10
2014,06,29,16,17,20.20
2014,06,29,16,18,20.20
2014,06,29,16,19,20.20
2014,06,29,16,20,20.20
2014,06,29,16,21,20.20
2014,06,29,16,22,20.10
2014,06,29,16,23,20.10
2014,06,29,16,24,20.10
2014,06,29,16,25,20.10
2014,06,29,16,26,20.10
2014,06,29,16,27,20.20
2014,06,29,16,28,20.20
2014,06,29,16,29,20.10
2014,06,29,16,30,20.10
2014,06,29,16,31,20.10
2014,06,29,16,32,20.10
2014,06,29,16,33,20.10
2014,06,29,16,34,20.10
2014,06,29,16,35,20.10
2014,06,29,16,36,20.10
2014,06,29,16,37,20.10
2014,06,29,16,38,20.10
2014,06,29,16,39,20.20
2014,06,29,16,40,20.30
2014,06,29,16,41,20.30
2014,06,29,16,42,20.40
2014,06,29,16,43,20.40
2014,06,29,16,44,20.40
2014,06,29,16,45,20.40
2014,06,29,16,46,20.40
2014,06,29,16,47,20.30
2014,06,29,16,48,20.30
2014,06,29,16,49,20.20
2014,06,29,16,50,20.20
2014,06,29,16,51,20.20
2014,06,29,16,52,20.20
2014,06,29,16,53,20.20
2014,06,29,16,54,20.20
2014,06,29,16,55,20.20
2014,06,29,16,56,20.20
2014,06,29,16,57,20.20
2014,06,29,16,58,20.10
2014,06,29,16,59,20.10
2014,06,29,17,00,20.20
2014,06,29,17,01,20.20
2014,06,29,17,02,20.20
2014,06,29,17,03,20.20
2014,06,29,17,04,20.10
2014,06,29,17,05,20.10
2014,06,29,17,06,20.10
2014,06,29,17,07,20.10
2014,06,29,17,08,20.10
2014,06,29,17,09,20.10
2014,06,29,17,10,20.10
2014,06,29,17,11,20.10
2014,06,29,17,12,20.10
2014,06,29,17,13,20.10
2014,06,29,17,14,20.10
2014,06,29,17,15,20.10
2014,06,29,17,16,20.20
2014,06,29,17,17,20.20
2014,06,29,17,18,20.20
2014,06,29,17,19,20.30